Regional Weather Roundup
Issued by NWS Upton, NY

Current Version | Previous Version | Graphics & Text | Print | Product List | Glossary Off
Versions: 1 2 3 4 5 6 7 8 9 10 11 12 13 14 15 16 17 18 19 20 21 22 23 24 25 26 27 28 29 30 31 32 33 34 35 36 37 38 39 40 41 42 43 44 45 46 47 48 49 50

000
ASUS41 KOKX 252318
RWROKX

REGIONAL WEATHER ROUNDUP
NATIONAL WEATHER SERVICE NEW YORK NY
700 PM EDT MON MAY 25 2015

NOTE: "FAIR" INDICATES FEW OR NO CLOUDS BELOW 12,000 FEET WITH NO
SIGNIFICANT WEATHER AND/OR OBSTRUCTIONS TO VISIBILITY.

NYZ071-072-176-178-NJZ106-104-260000-
NEW YORK CITY METRO AREA


CITY           SKY/WX    TMP DP  RH WIND       PRES   REMARKS
CENTRAL PARK   SUNNY     82  56  40 MISG      30.18R
LAGUARDIA APRT PTSUNNY   80  57  45 S13       30.15S
KENNEDY INTL   PTSUNNY   71  57  61 S22G33    30.18S
NEWARK/LIBERTY PTSUNNY   84  54  35 S17G29    30.15R
BRNX BOT. GARD   N/A     77  57  50 SE7       30.18R
TETERBORO      SUNNY     85  53  33 SW18G29   30.13R
$$

NYZ177-179-078>081-260000-
LONG ISLAND NEW YORK

CITY           SKY/WX    TMP DP  RH WIND       PRES   REMARKS
FARMINGDALE    MOSUNNY   71  56  58 SW18G33   30.19S
ISLIP          PTSUNNY   69  57  65 SW20G26   30.19S
SHIRLEY        SUNNY     65  57  75 S12       30.22S
WESTHAMPTON    SUNNY     64  56  75 SW10G21   30.23S
MONTAUK POINT    N/A     61  55  81 S9G18     30.24R
$$

NYZ052-065-067-260000-
HUDSON VALLEY

CITY           SKY/WX    TMP DP  RH WIND       PRES   REMARKS
WHITE PLAINS   MOSUNNY   76  58  53 S8        30.16S
NEWBURGH       MOSUNNY   82  59  44 SW12      30.13S
MONTGOMERY     NOT AVBL
POUGHKEEPSIE   SUNNY     82  58  43 SE7       30.10S
ALBANY         PTSUNNY   84  56  38 S8        30.04F
$$

NJZ001-105-106-008-010-013-015-019>022-104-260000-
NEW JERSEY

CITY           SKY/WX    TMP DP  RH WIND       PRES   REMARKS
NEWARK/LIBERTY PTSUNNY   84  54  35 S17G29    30.15R
TETERBORO      SUNNY     85  53  33 SW18G29   30.13R
CALDWELL       SUNNY     84  52  33 SW12G18   30.15R
MORRISTOWN     MOSUNNY   84  54  34 SW14G24   30.15S
SOMERVILLE     SUNNY     82  56  40 MISG      30.15R
SUSSEX         SUNNY     82  50  32 SW12G22   30.16R
ANDOVER          N/A     80  54  40 SW7G17    30.16R
TRENTON        MOSUNNY   80  56  43 SW12      30.18R
MILLVILLE      SUNNY     77  59  53 VRB5      30.22F
ATLANTIC CITY  SUNNY     74  58  57 S13       30.24S
WRIGHTSTOWN    SUNNY     79  57  47 SW13      30.17S
TOMS RIVER     SUNNY    N/A N/A N/A S12G17    30.21R
BELMAR         SUNNY     81  55  41 SW9G20    30.20R
$$

PAZ047>061-062-071-260000-
EASTERN PENNSYLVANIA

CITY           SKY/WX    TMP DP  RH WIND       PRES   REMARKS
PHILADELPHIA   PTSUNNY   83  57  41 SW18      30.19S
ALLENTOWN      PTSUNNY   82  58  43 S15G23    30.16S
SCRANTON       MOSUNNY   83  53  35 SW12G21   30.13S
$$

CTZ002-004>006-009-010-012-RIZ004-006-007-MAZ004-011-015-260000-
SOUTHERN NEW ENGLAND
 IN CT

CITY           SKY/WX    TMP DP  RH WIND       PRES   REMARKS
BRADLEY INTL   PTSUNNY   79  56  45 S18G25    30.13S
HARTFORD       SUNNY     77  56  48 S14G23    30.15S
DANBURY        SUNNY     77  55  46 S10       30.16F
WTRBRY/OXFORD  MOSUNNY   73  57  56 S12G22    30.18F
BRIDGEPORT     SUNNY     70  57  63 S18G26    30.16F
MERIDEN        SUNNY     76  55  48 S18G24    30.16F
NEW HAVEN      MOSUNNY   69  56  62 S8G16     30.19S
CHESTER        FAIR      72  57  60 S12G20    30.21S
GROTON         SUNNY     61  55  81 S6        30.21S
WILLIMANTIC    SUNNY     77  55  46 S13       30.18S

 IN RI

CITY           SKY/WX    TMP DP  RH WIND       PRES   REMARKS
PROVIDENCE     PTSUNNY   68  56  65 SE10      30.20S
BLOCK ISLAND   PTSUNNY   59  54  82 SW15      30.24S
WESTERLY       MOSUNNY   63  56  78 S8        30.23S

 IN MA

CITY           SKY/WX    TMP DP  RH WIND       PRES   REMARKS
BOSTON         PTSUNNY   73  56  54 S17       30.16S
WORCESTER      MOSUNNY   75  54  47 S16       30.18S
WESTFIELD      MOSUNNY   79  57  46 S16G22    30.12R
PROVINCETOWN   CLOUDY    63  54  72 S14G21    30.22S
NANTUCKET      CLOUDY    60  55  83 SW13      30.26S
$$

ANZ330-335-338-340-345-350-353-355-260000-
COASTAL MARINE OBSERVATIONS


STATION/POSITION TIME  SKY/WX   TEMP    WIND        PRES    VSBY  WAVE
                                AIR SEA DIR/SP/G                  HT/PER
                 (UTC)          (F)     (DEG/KT/KT) (MB)    (MI)  (FT/S)
NY HARB ENTRANCE 2250            63 57  190/ 21/ 25 1021.7          4/ 5
4S FIRE IS       2203               54                N/A           3/ 5
20S FIRE ISLAND  2250            60 55  190/ 19/ 23 1023.0          4/ 5
GREAT SOUTH BAY  2230            63 65  240/ 17/ 21   N/A
23SW MTP         2250            58 54  210/ 17/ 19 1023.4          2/ 4
HUDSON CANYON    NOT AVBL
KINGS POINT      2200            72 59  190/ 16/ 18 1020.6
CENTRAL LI SOUND NOT AVBL
EASTERN LI SOUND 2200            59     140/  4/  6   N/A
ROBBINS REEF     2200            83     220/ 20/ 25 1019.8
$$


>>>>>>>>>>>>>>>>>>>>>>>>>>>> KEY <<<<<<<<<<<<<<<<<<<<<<<<<<<
>                                                          <
>     SKY/WX - SKY CONDITION/PRESENT WEATHER               <
>     TMP    - TEMPERATURE IN FAHRENHEIT                   <
>     DP     - DEWPOINT IN FAHRENHEIT                      <
>     RH     - RELATIVE HUMIDITY IN PERCENT                <
>     WIND   - DIRECTION AND SPEED IN MPH                  <
>     PRES   - MEAN SEA LEVEL PRESSURE IN INCHES OF HG     <
>     WCI    - WIND CHILL INDEX                            <
>     VSB    - VISIBILITY IN MILES                         <
>     HX     - HEAT INDEX                                  <
>     TC     - TEMPERATURE IN CELSIUS                      <
>     VRB    - VARIABLE WIND DIRECTION                     <
>                                                          <
>>>>>>>>>>>>>>>>>>>>>>>>>>>> KEY <<<<<<<<<<<<<<<<<<<<<<<<<<<




USA.gov is the U.S. government's official web portal to all federal, state and local government web resources and services.